Miscellaneous Local Product
Issued by NWS North Platte, NE

Home | Current Version | Previous Version | Text Only | Print | Product List | Glossary On
Versions: 1 2 3 4 5 6 7 8 9 10 11 12 13 14 15 16 17 18 19 20 21 22 23 24 25 26 27 28 29 30 31 32 33 34 35 36 37 38 39 40 41 42 43 44 45 46 47 48 49 50
000
AXUS43 KLBF 180010
MISLBF


WESTERN AND NORTH CENTRAL NEBRASKA HOURLY WEATHER ROUNDUP
NATIONAL WEATHER SERVICE NORTH PLATTE NE
600 PM CST TUE JAN 17 2017

NOTE: "FAIR" INDICATES FEW OR NO CLOUDS BELOW 12,000 FEET WITH NO
SIGNIFICANT WEATHER AND/OR OBSTRUCTIONS TO VISIBILITY.

NOTE: STATIONS NOT REPORTING VARIABLES SUCH AS SKY/WEATHER OR
PRESSURE ARE PROVIDED BY RAWS AND APRS NETWORKS AND ARE NOT UNDER
NATIONAL WEATHER SERVICE QUALITY CONTROL.

...OBSERVATIONS IN AND NEAR THE EASTERN PANHANDLE OF NEBRASKA...

CITY           SKY/WX    TMP DP  RH WIND       PRES   REMARKS
PINE RIDGE     CLOUDY    31  19  61 SW3       29.93R
CHADRON        CLOUDY    30  23  75 W3        29.94R
ALLIANCE       CLOUDY    34  19  54 SW7       29.95S WCI  28
SIDNEY         CLEAR     35  29  78 SW10      29.99S WCI  27
$$

...OBSERVATIONS IN NORTHERN NEBRASKA AND FAR SOUTHERN SOUTH DAKOTA...

CITY           SKY/WX    TMP DP  RH WIND       PRES   REMARKS
WINNER         FAIR      43  20  39 SW7       29.91S
VALENTINE      CLEAR     35  14  42 SW10      29.93S WCI  27
THEDFORD       CLEAR     40  27  61 SW7       29.98R WCI  35
AINSWORTH      CLEAR     38  22  52 S8        29.95R WCI  32
O`NEILL        CLEAR     38  32  79 S8        29.99R WCI  32
ORD            CLEAR     35  28  75 CALM      30.01S
BROKEN BOW     CLEAR     35  27  72 SW5       30.01R WCI  31
VALENTINE NWR    N/A     45  22  40 SW6G16      N/A
BUTTE            N/A     37  30  77 SE9         N/A  WCI  30
HALSEY           N/A     46  22  39 SW3G12      N/A
SARGENT          N/A     38  29  71 CALM        N/A
CHAMBERS         N/A     36  30  78 CALM        N/A
EWING            N/A     35  32  89 SW5         N/A  WCI  31
$$

...OBSERVATIONS IN SOUTHWEST NEBRASKA AND FAR NORTHEAST COLORADO...

CITY           SKY/WX    TMP DP  RH WIND       PRES   REMARKS
WRAY           FAIR      37  32  81 SW3       30.03S
HOLYOKE        FAIR      36  30  80 S10       30.01S WCI  28
IMPERIAL       CLEAR     38  30  73 SW7       30.02F WCI  33
OGALLALA       CLEAR     38  29  71 CALM      30.01S
NORTH PLATTE   CLEAR     39  28  64 SW6       30.02S WCI  35
MCCOOK         CLEAR     43  27  53 SW3       30.04F
LEXINGTON      CLEAR     39  27  62 SW7       30.04S WCI  34
STAPLETON        N/A     37  29  72 CALM        N/A
GOTHENBURG       N/A     42  25  50 CALM        N/A
CALLAWAY         N/A     34  28  79 S6          N/A  WCI  29
$$

...OBSERVATIONS IN CENTRAL LINCOLN COUNTY AREA...

CITY           SKY/WX    TMP DP  RH WIND       PRES   REMARKS
N.P. AIRPORT   CLEAR     39  28  64 SW6       30.02S WCI  35
N.P. DOWNTOWN    N/A     40  30  67 CALM        N/A
N.P. SOUTHEAST   N/A     40  29  64 CALM        N/A
N.P. HILLCREST   N/A     41  30  64 SW5         N/A
$$

...SOME OBSERVATIONS FROM AROUND THE REGION...

CITY           SKY/WX    TMP DP  RH WIND       PRES   REMARKS
LARAMIE        CLOUDY    17  11  77 NW3       30.07R
CHEYENNE       CLEAR     42   6  22 W5        29.99S
DENVER         PTCLDY    38  27  64 E6        30.01R WCI  33
AKRON          CLEAR     32  26  78 W7        30.01S WCI  26
SCOTTSBLUFF    CLOUDY    41  17  38 W10       29.97S
RAPID CITY     CLOUDY    35  17  47 CALM      29.88S
BISMARCK       CLOUDY    28  17  63 SW6       29.79S WCI  22
PIERRE         CLOUDY    20  14  77 S5        29.90S WCI  13
SIOUX FALLS    PTCLDY    29  23  78 S6        30.00S WCI  23
OMAHA          CLEAR     30  24  78 SE7       30.10S WCI  23
GRAND ISLAND   CLEAR     34  32  92 S6        30.06R WCI  29
KANSAS CITY    PTCLDY    34  30  85 N6        30.13R WCI  29
WICHITA        PTCLDY    46  31  55 CALM      30.12R
OKLAHOMA CITY  CLOUDY    49  30  48 N6        30.12F
DALLAS         LGT RAIN  51  40  65 N3        30.13S
AMARILLO       CLOUDY    48  35  60 E8        30.10R
DODGE CITY     CLEAR     40  33  76 CALM      30.08S
HAYS           CLEAR     42  31  64 S5        30.08F
GOODLAND       CLEAR     37  32  82 SW5       30.03F WCI  33
$$




USA.gov is the U.S. government's official web portal to all federal, state and local government web resources and services.